EW3393 Weather Reports


Display with metric or nautical units.
time (UTC)temp
F
wind
direction
speed
MPH
gust
MPH
rain 1hr
in
rain 24hr
in
rain mn
in
humidity
%
barometer
mb
20260509083839 74 308 12.0 16.0 0.00 0.00 0.00 44 1008.8
20260509083330 74 304 13.0 18.0 0.00 0.00 0.00 43 1008.9
20260509082823 75 311 15.0 18.0 0.00 0.00 0.00 42 1008.8
20260509082314 74 313 12.0 15.0 0.00 0.00 0.00 41 1008.8
20260509081831 74 308 13.0 15.0 0.00 0.00 0.00 42 1008.8
20260509081323 74 302 12.0 15.0 0.00 0.00 0.00 42 1008.9
20260509080815 74 305 12.0 15.0 0.00 0.00 0.00 43 1008.9
20260509080347 74 302 11.0 13.0 0.00 0.00 0.00 43 1009.0
20260509075816 74 285 10.0 13.0 0.00 0.00 0.00 42 1009.1
20260509075328 75 277 11.0 14.0 0.00 0.00 0.00 42 1009.1
20260509074820 75 277 11.0 14.0 0.00 0.00 0.00 43 1009.2
20260509074331 75 273 11.0 14.0 0.00 0.00 0.00 43 1009.2
20260509073824 75 285 12.0 14.0 0.00 0.00 0.00 43 1009.2
20260509073319 75 278 8.0 12.0 0.00 0.00 0.00 41 1009.2
20260509072853 75 273 10.0 12.0 0.00 0.00 0.00 42 1009.3
20260509072321 76 292 10.0 12.0 0.00 0.00 0.00 42 1009.3
20260509071814 76 284 9.0 13.0 0.00 0.00 0.00 42 1009.4
20260509071326 76 279 10.0 16.0 0.00 0.00 0.00 41 1009.4
20260509070819 76 268 12.0 19.0 0.00 0.00 0.00 41 1009.5
20260509070329 76 278 15.0 19.0 0.00 0.00 0.00 42 1009.4
20260509065838 76 268 14.0 17.0 0.00 0.00 0.00 41 1009.4
20260509065349 76 288 13.0 19.0 0.00 0.00 0.00 41 1009.5
20260509064821 76 274 13.0 19.0 0.00 0.00 0.00 40 1009.6
20260509064332 76 279 13.0 17.0 0.00 0.00 0.00 40 1009.6
20260509063844 76 285 13.0 17.0 0.00 0.00 0.00 39 1009.6
20260509063319 76 269 11.0 15.0 0.00 0.00 0.00 38 1009.6
20260509062830 77 283 10.0 15.0 0.00 0.00 0.00 38 1009.6
20260509062322 77 288 11.0 17.0 0.00 0.00 0.00 38 1009.6
20260509061815 77 267 13.0 18.0 0.00 0.00 0.00 37 1009.4
20260509061327 77 279 13.0 18.0 0.00 0.00 0.00 38 1009.5
20260509060819 77 294 12.0 17.0 0.00 0.00 0.00 37 1009.5
20260509060330 78 274 12.0 18.0 0.00 0.00 0.00 37 1009.5
20260509055821 77 269 13.0 18.0 0.00 0.00 0.00 38 1009.4
20260509055317 78 295 12.0 15.0 0.00 0.00 0.00 37 1009.5
20260509054829 78 288 11.0 14.0 0.00 0.00 0.00 36 1009.5
20260509054321 78 296 11.0 17.0 0.00 0.00 0.00 36 1009.5
20260509053814 78 306 10.0 17.0 0.00 0.00 0.00 35 1009.4
20260509053325 79 293 11.0 16.0 0.00 0.00 0.00 35 1009.4
20260509052817 79 298 11.0 14.0 0.00 0.00 0.00 34 1009.5
20260509052327 79 264 10.0 13.0 0.00 0.00 0.00 33 1009.5
20260509051820 80 311 8.0 12.0 0.00 0.00 0.00 32 1009.5
20260509051332 80 294 7.0 11.0 0.00 0.00 0.00 31 1009.4
20260509050825 80 301 8.0 12.0 0.00 0.00 0.00 30 1009.5
20260509050321 81 270 9.0 14.0 0.00 0.00 0.00 30 1009.4
20260509045831 81 261 11.0 13.0 0.00 0.00 0.00 29 1009.5
20260509045342 81 251 10.0 14.0 0.00 0.00 0.00 28 1009.4
20260509044814 81 269 9.0 14.0 0.00 0.00 0.00 28 1009.4
20260509044346 81 273 10.0 14.0 0.00 0.00 0.00 27 1009.4
20260509043817 82 284 10.0 21.0 0.00 0.00 0.00 27 1009.4
20260509043328 82 278 12.0 21.0 0.00 0.00 0.00 27 1009.3
20260509042842 82 286 14.0 21.0 0.00 0.00 0.00 28 1009.2
20260509042312 82 263 17.0 23.0 0.00 0.00 0.00 30 1009.2
20260509041825 81 277 17.0 23.0 0.00 0.00 0.00 31 1009.1
20260509041316 82 252 18.0 25.0 0.00 0.00 0.00 32 1009.1
20260509040828 82 278 19.0 25.0 0.00 0.00 0.00 31 1009.1
20260509040323 82 260 19.0 26.0 0.00 0.00 0.00 32 1009.1
20260509035834 82 287 18.0 28.0 0.00 0.00 0.00 31 1009.1
20260509035325 83 273 22.0 28.0 0.00 0.00 0.00 31 1009.0
20260509034818 83 274 21.0 28.0 0.00 0.00 0.00 31 1009.0
20260509034330 83 263 21.0 30.0 0.00 0.00 0.00 30 1008.9
20260509033820 84 299 21.0 30.0 0.00 0.00 0.00 30 1008.9
20260509033330 84 255 22.0 30.0 0.00 0.00 0.00 30 1008.8
20260509032844 84 269 24.0 33.0 0.00 0.00 0.00 30 1008.7
20260509032314 84 281 22.0 33.0 0.00 0.00 0.00 30 1008.7
20260509031827 84 261 23.0 29.0 0.00 0.00 0.00 30 1008.7
20260509031323 85 280 20.0 29.0 0.00 0.00 0.00 29 1008.7
20260509030816 85 267 20.0 30.0 0.00 0.00 0.00 28 1008.5
20260509030325 85 271 23.0 30.0 0.00 0.00 0.00 28 1008.5
20260509025836 86 281 17.0 28.0 0.00 0.00 0.00 28 1008.4
20260509025325 86 279 19.0 30.0 0.00 0.00 0.00 28 1008.3
20260509024817 86 273 22.0 30.0 0.00 0.00 0.00 27 1008.3
20260509024328 86 289 20.0 28.0 0.00 0.00 0.00 27 1008.3
20260509023820 87 309 19.0 30.0 0.00 0.00 0.00 26 1008.3
20260509023330 87 295 23.0 32.0 0.00 0.00 0.00 26 1008.2
20260509022843 87 274 22.0 32.0 0.00 0.00 0.00 26 1008.1
20260509022313 88 292 20.0 26.0 0.00 0.00 0.00 25 1008.1
20260509021829 88 292 20.0 25.0 0.00 0.00 0.00 24 1008.0
20260509021321 89 277 18.0 25.0 0.00 0.00 0.00 23 1008.0
20260509020831 89 283 20.0 26.0 0.00 0.00 0.00 23 1007.9
20260509020323 89 292 21.0 30.0 0.00 0.00 0.00 23 1007.9
20260509015831 90 291 20.0 30.0 0.00 0.00 0.00 22 1007.9
20260509015323 90 317 20.0 28.0 0.00 0.00 0.00 21 1007.8
20260509014816 91 273 18.0 25.0 0.00 0.00 0.00 21 1007.8
20260509014327 91 277 17.0 25.0 0.00 0.00 0.00 21 1007.9
20260509013820 92 281 17.0 25.0 0.00 0.00 0.00 20 1007.7
20260509013352 92 305 17.0 27.0 0.00 0.00 0.00 19 1007.7
20260509012827 92 284 18.0 27.0 0.00 0.00 0.00 20 1007.7
20260509012317 92 299 19.0 29.0 0.00 0.00 0.00 19 1007.8
20260509011830 93 313 20.0 28.0 0.00 0.00 0.00 20 1007.8
20260509011321 93 277 20.0 28.0 0.00 0.00 0.00 19 1007.8
20260509010815 93 294 18.0 28.0 0.00 0.00 0.00 20 1007.7
20260509010327 93 264 21.0 28.0 0.00 0.00 0.00 19 1007.7
20260509005816 94 274 20.0 29.0 0.00 0.00 0.00 19 1007.7
20260509005328 94 274 22.0 29.0 0.00 0.00 0.00 18 1007.6
20260509004825 94 277 20.0 27.0 0.00 0.00 0.00 18 1007.7
20260509004315 95 313 16.0 27.0 0.00 0.00 0.00 18 1007.7
20260509003828 95 284 17.0 28.0 0.00 0.00 0.00 16 1007.6
20260509003319 95 261 20.0 28.0 0.00 0.00 0.00 16 1007.6
20260509002832 95 252 20.0 27.0 0.00 0.00 0.00 16 1007.7
20260509002322 95 277 20.0 30.0 0.00 0.00 0.00 15 1007.7
20260509001815 96 254 22.0 31.0 0.00 0.00 0.00 15 1007.7
20260509001325 96 284 22.0 29.0 0.00 0.00 0.00 15 1007.8
20260509000817 96 273 23.0 31.0 0.00 0.00 0.00 15 1007.8
20260509000313 96 252 23.0 31.0 0.00 0.00 0.00 14 1007.7
20260508235823 97 280 20.0 30.0 0.00 0.00 0.00 14 1007.8
20260508235314 97 265 24.0 30.0 0.00 0.00 0.00 12 1007.8
20260508234826 96 259 21.0 30.0 0.00 0.00 0.00 13 1007.8
20260508234317 97 250 23.0 31.0 0.00 0.00 0.00 13 1007.9
20260508233831 97 260 23.0 29.0 0.00 0.00 0.00 12 1007.9
20260508233324 97 257 22.0 33.0 0.00 0.00 0.00 12 1007.9
20260508232818 97 266 23.0 33.0 0.00 0.00 0.00 12 1007.9
20260508232349 97 248 23.0 32.0 0.00 0.00 0.00 12 1008.0
20260508231845 98 238 20.0 28.0 0.00 0.00 0.00 11 1008.0
20260508231336 98 263 21.0 28.0 0.00 0.00 0.00 12 1008.1
20260508230849 98 255 21.0 28.0 0.00 0.00 0.00 11 1008.1
20260508230320 98 268 20.0 28.0 0.00 0.00 0.00 12 1008.0
20260508225830 98 248 24.0 28.0 0.00 0.00 0.00 12 1008.1
20260508225323 98 260 19.0 27.0 0.00 0.00 0.00 11 1008.2
20260508224817 98 261 21.0 28.0 0.00 0.00 0.00 11 1008.2
20260508224330 98 247 20.0 28.0 0.00 0.00 0.00 11 1008.3
20260508223823 98 268 20.0 26.0 0.00 0.00 0.00 11 1008.4
20260508223319 98 251 19.0 26.0 0.00 0.00 0.00 10 1008.4
20260508222832 98 261 20.0 27.0 0.00 0.00 0.00 11 1008.5
20260508222325 98 267 19.0 28.0 0.00 0.00 0.00 10 1008.5
20260508221819 98 275 18.0 26.0 0.00 0.00 0.00 11 1008.6
20260508221332 98 261 18.0 30.0 0.00 0.00 0.00 10 1008.7
20260508220826 98 250 22.0 30.0 0.00 0.00 0.00 11 1008.7
20260508220318 98 247 21.0 29.0 0.00 0.00 0.00 10 1008.8
20260508215848 98 251 20.0 27.0 0.00 0.00 0.00 10 1008.9
20260508215319 98 269 18.0 25.0 0.00 0.00 0.00 10 1008.9
20260508214815 98 256 19.0 25.0 0.00 0.00 0.00 10 1008.9
20260508214346 98 288 14.0 24.0 0.00 0.00 0.00 10 1009.1
20260508213817 98 247 18.0 23.0 0.00 0.00 0.00 9 1009.1
20260508213349 98 245 18.0 24.0 0.00 0.00 0.00 11 1009.2
20260508212821 98 251 17.0 23.0 0.00 0.00 0.00 10 1009.3
20260508212313 98 257 14.0 27.0 0.00 0.00 0.00 10 1009.4
20260508211826 98 286 17.0 27.0 0.00 0.00 0.00 11 1009.4
20260508211318 98 256 14.0 23.0 0.00 0.00 0.00 10 1009.5
20260508210831 98 252 15.0 23.0 0.00 0.00 0.00 11 1009.5
20260508210343 97 224 14.0 24.0 0.00 0.00 0.00 10 1009.6
20260508205815 98 250 18.0 24.0 0.00 0.00 0.00 11 1009.6
20260508205347 97 251 18.0 23.0 0.00 0.00 0.00 11 1009.7
20260508204839 98 244 18.0 24.0 0.00 0.00 0.00 11 1009.8
20260508204350 97 265 16.0 24.0 0.00 0.00 0.00 11 1009.8
20260508203822 97 234 17.0 24.0 0.00 0.00 0.00 10 1009.8
20260508203335 97 321 15.0 25.0 0.00 0.00 0.00 11 1009.8
20260508202828 97 280 19.0 25.0 0.00 0.00 0.00 12 1009.9
20260508202341 98 270 18.0 24.0 0.00 0.00 0.00 12 1009.9
20260508201814 98 271 16.0 26.0 0.00 0.00 0.00 11 1010.0
20260508201326 97 290 19.0 26.0 0.00 0.00 0.00 12 1010.0
20260508200839 97 274 13.0 25.0 0.00 0.00 0.00 11 1010.1
20260508200350 97 240 17.0 25.0 0.00 0.00 0.00 11 1010.1
20260508195819 97 271 14.0 21.0 0.00 0.00 0.00 11 1010.1
20260508195315 97 278 15.0 21.0 0.00 0.00 0.00 11 1010.2
20260508194828 97 242 11.0 21.0 0.00 0.00 0.00 11 1010.3
20260508194320 97 242 17.0 22.0 0.00 0.00 0.00 11 1010.3
20260508193853 96 271 14.0 22.0 0.00 0.00 0.00 11 1010.4
20260508193323 97 244 11.0 21.0 0.00 0.00 0.00 11 1010.4
20260508192814 96 251 11.0 18.0 0.00 0.00 0.00 12 1010.4
20260508192345 96 263 10.0 20.0 0.00 0.00 0.00 11 1010.5
20260508191817 96 250 10.0 20.0 0.00 0.00 0.00 11 1010.5
20260508191329 96 230 10.0 19.0 0.00 0.00 0.00 11 1010.5
20260508190823 96 226 13.0 19.0 0.00 0.00 0.00 11 1010.6
20260508190319 96 232 11.0 19.0 0.00 0.00 0.00 12 1010.6
20260508185830 96 261 12.0 18.0 0.00 0.00 0.00 11 1010.6
20260508185342 96 257 13.0 15.0 0.00 0.00 0.00 12 1010.6
20260508184814 96 260 10.0 17.0 0.00 0.00 0.00 12 1010.7
20260508184325 96 256 11.0 19.0 0.00 0.00 0.00 11 1010.7
20260508183819 96 262 12.0 19.0 0.00 0.00 0.00 12 1010.7
20260508183331 95 237 9.0 18.0 0.00 0.00 0.00 11 1010.8
20260508182822 94 246 12.0 21.0 0.00 0.00 0.00 12 1010.9
20260508182314 94 238 14.0 21.0 0.00 0.00 0.00 12 1011.0
20260508181831 94 257 12.0 20.0 0.00 0.00 0.00 13 1011.0
20260508181323 94 270 16.0 20.0 0.00 0.00 0.00 13 1010.9
20260508180816 95 245 14.0 19.0 0.00 0.00 0.00 14 1010.9
20260508180326 94 271 15.0 20.0 0.00 0.00 0.00 14 1011.0
20260508175835 94 279 15.0 20.0 0.00 0.00 0.00 16 1011.0
20260508175325 93 269 14.0 24.0 0.00 0.00 0.00 16 1011.0
20260508174818 93 257 17.0 24.0 0.00 0.00 0.00 16 1011.0
20260508174329 93 245 15.0 23.0 0.00 0.00 0.00 17 1011.0
20260508173822 92 271 17.0 25.0 0.00 0.00 0.00 18 1011.0
20260508173333 92 308 17.0 25.0 0.00 0.00 0.00 18 1011.0
20260508172825 91 288 17.0 24.0 0.00 0.00 0.00 18 1010.9
20260508172341 91 275 19.0 24.0 0.00 0.00 0.00 19 1011.0
20260508171833 91 280 18.0 24.0 0.00 0.00 0.00 19 1010.9
20260508171325 91 257 15.0 20.0 0.00 0.00 0.00 21 1011.0
20260508170817 90 281 15.0 19.0 0.00 0.00 0.00 20 1011.0
20260508170349 90 267 16.0 20.0 0.00 0.00 0.00 21 1011.0
20260508165819 90 238 15.0 20.0 0.00 0.00 0.00 20 1011.0
20260508165330 90 285 15.0 21.0 0.00 0.00 0.00 20 1011.0
20260508164824 90 252 16.0 21.0 0.00 0.00 0.00 19 1011.0
20260508164317 89 248 14.0 21.0 0.00 0.00 0.00 21 1011.1
20260508163814 89 274 14.0 18.0 0.00 0.00 0.00 21 1011.1
20260508163325 88 273 14.0 18.0 0.00 0.00 0.00 22 1011.1
20260508162819 88 269 11.0 15.0 0.00 0.00 0.00 24 1011.1
20260508162350 87 311 9.0 15.0 0.00 0.00 0.00 24 1011.1
20260508161822 87 277 12.0 16.0 0.00 0.00 0.00 25 1011.1
20260508161313 86 272 13.0 16.0 0.00 0.00 0.00 26 1011.1
20260508160828 86 296 11.0 18.0 0.00 0.00 0.00 26 1011.1
20260508160320 85 279 14.0 18.0 0.00 0.00 0.00 26 1011.1
20260508155829 85 274 13.0 17.0 0.00 0.00 0.00 27 1011.0
20260508155320 85 275 13.0 17.0 0.00 0.00 0.00 26 1011.0
20260508154819 85 267 12.0 16.0 0.00 0.00 0.00 25 1011.0
20260508154330 84 281 10.0 15.0 0.00 0.00 0.00 25 1011.0
20260508153824 83 275 11.0 17.0 0.00 0.00 0.00 27 1011.1
20260508153316 83 296 12.0 17.0 0.00 0.00 0.00 28 1011.1
20260508152831 82 289 12.0 15.0 0.00 0.00 0.00 29 1011.1
20260508152323 82 275 13.0 15.0 0.00 0.00 0.00 30 1011.1
20260508151817 81 286 11.0 16.0 0.00 0.00 0.00 31 1011.2
20260508151328 80 285 12.0 16.0 0.00 0.00 0.00 33 1011.2
20260508150826 80 281 12.0 16.0 0.00 0.00 0.00 33 1011.2
20260508150318 80 300 13.0 16.0 0.00 0.00 0.00 33 1011.2
20260508145828 79 268 12.0 15.0 0.00 0.00 0.00 33 1011.2
20260508145319 78 273 11.0 15.0 0.00 0.00 0.00 35 1011.2
20260508144853 78 295 13.0 16.0 0.00 0.00 0.00 35 1011.2
20260508144322 77 275 13.0 17.0 0.00 0.00 0.00 34 1011.2
20260508143814 77 298 12.0 16.0 0.00 0.00 0.00 33 1011.2
20260508143345 77 279 12.0 16.0 0.00 0.00 0.00 33 1011.2
20260508142817 76 288 12.0 15.0 0.00 0.00 0.00 35 1011.2
20260508142327 76 290 12.0 15.0 0.00 0.00 0.00 36 1011.2
20260508141819 76 290 11.0 15.0 0.00 0.00 0.00 37 1011.1
20260508141314 76 290 12.0 15.0 0.00 0.00 0.00 37 1011.1
20260508140828 75 303 11.0 16.0 0.00 0.00 0.00 37 1011.0
20260508140320 75 311 13.0 16.0 0.00 0.00 0.00 37 1010.9
20260508135850 74 301 12.0 15.0 0.00 0.00 0.00 39 1010.9
20260508135321 74 293 12.0 15.0 0.00 0.00 0.00 39 1010.8
20260508134816 73 279 12.0 15.0 0.00 0.00 0.00 39 1010.8
20260508134327 73 267 12.0 17.0 0.00 0.00 0.00 39 1010.8
20260508133841 73 283 13.0 17.0 0.00 0.00 0.00 40 1010.8
20260508133332 73 271 13.0 18.0 0.00 0.00 0.00 41 1010.7
20260508132826 72 292 14.0 18.0 0.00 0.00 0.00 41 1010.6
20260508132322 72 297 14.0 17.0 0.00 0.00 0.00 42 1010.6
20260508131816 71 298 13.0 15.0 0.00 0.00 0.00 43 1010.5
20260508131327 71 313 12.0 16.0 0.00 0.00 0.00 44 1010.5
20260508130819 71 305 12.0 16.0 0.00 0.00 0.00 44 1010.5
20260508130331 71 299 12.0 16.0 0.00 0.00 0.00 44 1010.5
20260508125821 70 318 13.0 15.0 0.00 0.00 0.00 46 1010.5
20260508125332 70 311 12.0 14.0 0.00 0.00 0.00 47 1010.4
20260508124845 70 314 12.0 14.0 0.00 0.00 0.00 48 1010.4
20260508124314 69 299 11.0 13.0 0.00 0.00 0.00 49 1010.4
20260508123830 70 301 11.0 14.0 0.00 0.00 0.00 49 1010.4
20260508123321 69 302 11.0 14.0 0.00 0.00 0.00 49 1010.2
20260508122814 69 301 10.0 12.0 0.00 0.00 0.00 49 1010.3
20260508122326 70 279 9.0 12.0 0.00 0.00 0.00 48 1010.2
20260508121818 70 295 10.0 12.0 0.00 0.00 0.00 48 1010.2
20260508121329 70 302 9.0 14.0 0.00 0.00 0.00 47 1010.2
20260508120822 71 272 10.0 15.0 0.00 0.00 0.00 46 1010.1
20260508120352 71 317 12.0 14.0 0.00 0.00 0.00 46 1010.0
20260508115822 71 294 9.0 12.0 0.00 0.00 0.00 45 1010.0
20260508115337 71 298 10.0 13.0 0.00 0.00 0.00 45 1010.0
20260508114827 72 298 11.0 13.0 0.00 0.00 0.00 44 1010.0
20260508114318 72 301 10.0 13.0 0.00 0.00 0.00 42 1010.1
20260508113830 72 309 9.0 13.0 0.00 0.00 0.00 42 1010.1
20260508113321 72 317 7.0 13.0 0.00 0.00 0.00 41 1010.1
20260508112833 72 306 9.0 13.0 0.00 0.00 0.00 40 1010.2
20260508112323 72 301 8.0 12.0 0.00 0.00 0.00 40 1010.1
20260508111837 72 291 4.0 6.0 0.00 0.00 0.00 40 1010.1
20260508111328 71 288 4.0 9.0 0.00 0.00 0.00 40 1010.2
20260508110820 71 295 5.0 13.0 0.00 0.00 0.00 42 1010.1
20260508110314 72 273 8.0 13.0 0.00 0.00 0.00 43 1010.0
20260508105824 71 297 11.0 15.0 0.00 0.00 0.00 45 1010.0
20260508105315 71 290 10.0 15.0 0.00 0.00 0.00 46 1010.0
20260508104847 71 302 11.0 15.0 0.00 0.00 0.00 47 1010.0
20260508104316 71 300 10.0 15.0 0.00 0.00 0.00 47 1010.0
20260508103830 71 306 12.0 15.0 0.00 0.00 0.00 47 1009.9
20260508103321 71 322 11.0 16.0 0.00 0.00 0.00 47 1009.9
20260508102326 71 290 14.0 18.0 0.00 0.00 0.00 47 1009.9
20260508101819 70 302 12.0 15.0 0.00 0.00 0.00 47 1009.9
20260508101315 70 311 11.0 15.0 0.00 0.00 0.00 48 1009.9
20260508100827 71 302 12.0 18.0 0.00 0.00 0.00 47 1009.9
20260508100339 71 281 14.0 18.0 0.00 0.00 0.00 47 1010.0
20260508095827 71 296 14.0 17.0 0.00 0.00 0.00 47 1009.9
20260508095339 71 298 13.0 17.0 0.00 0.00 0.00 47 1009.9
20260508094831 71 295 14.0 17.0 0.00 0.00 0.00 47 1009.9
20260508094322 71 292 14.0 18.0 0.00 0.00 0.00 47 1009.9
20260508093834 71 300 14.0 18.0 0.00 0.00 0.00 47 1009.9
20260508093325 71 313 14.0 18.0 0.00 0.00 0.00 47 1009.9
20260508092818 72 291 13.0 18.0 0.00 0.00 0.00 46 1009.9
20260508092314 72 301 13.0 18.0 0.00 0.00 0.00 45 1009.9
20260508091826 72 277 12.0 16.0 0.00 0.00 0.00 44 1010.0
20260508091318 73 293 13.0 19.0 0.00 0.00 0.00 43 1010.0
20260508090830 73 300 15.0 19.0 0.00 0.00 0.00 43 1010.0
20260508090323 72 277 14.0 18.0 0.00 0.00 0.00 45 1010.1
20260508085852 72 289 15.0 18.0 0.00 0.00 0.00 45 1010.1
20260508085322 72 284 12.0 15.0 0.00 0.00 0.00 45 1010.1
20260508084815 72 291 13.0 16.0 0.00 0.00 0.00 45 1010.1
20260508084346 72 300 12.0 16.0 0.00 0.00 0.00 45 1010.2